Showing default

ETV-A1, 51060

Orbit data source: Space-Track

ETV-A1, 51060 is a payload satellite owned by Sen (UK) in SSO that was launched on Thu, 13 Jan 2022 UTC via an FALCON 9 launch vehicle from the Air Force Eastern Test Range (AFETR). Payload-class satellites include a variety of spacecraft equipped with specific instruments for various scientific and technological missions. These include communications satellites like Starlink; space stations such as the ISS; scientific satellites like the Hubble; Earth observation satellites from companies like Planet Labs, Umbra, and HawkEye 360; GPS; miniature CubeSats for education and research; and military/defense satellites.

Loading next visibility...
Identifier
51060, 2022-002CE
Orbit
SSO
Country
Flag of UKUK
Related business
Manufacturer
NanoAvionics
Mission
Operational Commercial Imaging
Bus & Motor
CUBESAT 16U, Unknown motor
Mass
~20 kg wet, ~20 kg dry
Launch date (UTC)
2022-01-13 (4 years ago)
Launch vehicle
FALCON 9
Launch site
Air Force Eastern Test Range (AFETR)
Object type
Payload
Rocket body
Debris
Shape & HBR
Box + 2 Pan, 0.2 m
Radar Cross Section
0.100 m², Medium (>0.1 m² and < 1m²)

Expand to show TLE details & history
Last TLE update: 7 hours ago

TLE from 7 hours ago
0 ETV-A1
1 51060U 22002CE  25346.99810280  .00016338  00000-0  46668-3 0  9999
2 51060  97.3161  49.1694 0004321 306.3146  53.7699 15.36076802217217
Epoch: 2025-12-12T23:57Z
TLE epoch observation values (Epoch: 2025-12-12T23:57:16.081Z)
Latitude
-0.00002°
Longitude
-32.07929°
Altitude
459.093 km
Speed
7.638 km/s
True Right ascension
03h 16m 40s
True Declination
0° 00' 00"
Sunlit
Object was in full shadow at epoch
Visualization orbit readout
Latitude
Unknown
Longitude
Unknown
Altitude
Unknown
Speed
Unknown
Apparent Right ascension
Unknown
Apparent Declination
Unknown
Sunlit
N/A
Visualization observer readout
Local Sidereal Time
05:23:00
Azimuth
Unknown
Elevation
Unknown
Doppler factor
Unknown
Orbital elements
Apogee altitude
457.617 km
Perigee altitude
451.712 km
Semi-major axis
6,832.802 km
Eccentricity
0.00043
Inclination
97.3161°
RAAN
49.1694°
Arg. of periapsis
306.3146°
True anomaly
53.80985°
Mean anomaly
53.7699°
Eccentric anomaly
53.78988°
Mean motion
3.84278 °/min
Orbital period
93.68 mins
BSTAR
0.00046668
Loading maneuver chart data...
Computing Atmospheric mass density...

Documentation

Showing up to 5 results
|